Powrót do katalogu

STARLINK-35720

AktywnyŁącznośćVLEO
NORAD 67052·PAYLOAD·🇺🇸 United States

Wystrzelony Dec 11, 2025 z Cape Canaveral Space Force Station

Loading…

Następne Przeloty (najbliższe 24 godziny)

TLE

ŚwieżeSource: CelesTrak SupGP

Epoka: Sep 14, 2026, 20:49 UTC

1 67052C 25294Y   26257.86784722  .00047389  00000+0  17167-2 0  2579
2 67052  43.0043  49.5977 0001542 274.4989  50.3704 15.27549419    19

Śledź STARLINK-35720 w czasie rzeczywistym z AllMySat

Download on the App Store